CZ-3C DEB, 39345

Orbit data source: Space-Track

CZ-3C DEB, 39345 is space debris in HEO originally from a launch on Sun, 31 Oct 2010 UTC launched from the Xichang Space Center, China (XSC). Debris objects in space refer to the collection of defunct objects orbiting the Earth. Examples of debris include non-operational satellites, rocket bodies, and fragments generated from explosions, collisions, or faulty payload assembly.

Loading next visibility...
Identifier
39345, 2010-057K
Orbit
HEO
Country
Flag of CNCN / PRC
Related business
Manufacturer
CALT
Mission
Spacecraft
Bus & Motor
Unknown
Mass
Unknown
Launch date (UTC)
2010-10-31 (15 years ago)
Launch vehicle
Unknown
Launch site
Xichang Space Center, China (XSC)
Object type
Payload
Rocket body
Debris
Shape & HBR
Unknown shape, 0.4 m
Radar Cross Section
Medium (>0.1 m² and <1 m²)

Expand to show TLE details & history
Last TLE update: 4 days ago

TLE from 4 days ago
0 CZ-3C DEB
1 39345U 10057K   26064.38521807  .00003420  00000-0  29264-2 0  9993
2 39345  20.6519   3.6850 6754284 264.2900  21.5710  2.91438695116483
Epoch: 2026-03-05T09:14Z
TLE epoch observation values (Epoch: 2026-03-05T09:14:42.841Z)
Latitude
-0.00001°
Longitude
61.86868°
Altitude
5,717.925 km
Speed
6.83 km/s
True Right ascension
00h 14m 44s
True Declination
0° 00' 00"
Sunlit
Object was in daylight at epoch
Visualization orbit readout
Latitude
Unknown
Longitude
Unknown
Altitude
Unknown
Speed
Unknown
Apparent Right ascension
Unknown
Apparent Declination
Unknown
Sunlit
N/A
Visualization observer readout
Local Sidereal Time
16:23:39
Azimuth
Unknown
Elevation
Unknown
Doppler factor
Unknown
Orbital elements
Apogee altitude
28,315.809 km
Perigee altitude
342.932 km
Semi-major axis
20,707.507 km
Eccentricity
0.67543
Inclination
20.6519°
RAAN
3.685°
Arg. of periapsis
264.29°
True anomaly
96.0155°
Mean anomaly
21.571°
Eccentric anomaly
52.11354°
Mean motion
0.72837 °/min
Orbital period
494.25 mins
BSTAR
0.0029264
Loading maneuver chart data...
Computing Atmospheric mass density...
Loading historical data...
Loading historical data...
Loading historical data...
Loading historical data...
Loading historical data...
Loading historical data...
Loading historical data...

Documentation

Showing up to 5 results
|